{"data":{"norad_id":66338,"epoch":"2026-09-20T04:49:55.817472Z","epoch_age_seconds":118914,"freshness":"FRESH","line1":"1 66338U 25253V   26263.20134048  .00010059  00000+0  37448-3 0  9997","line2":"2 66338  43.0025 193.9131 0000506 338.5651  21.5179 15.27588237 49995","mean_motion":15.27588237,"eccentricity":5.06e-5,"inclination_deg":43.0025,"raan_deg":193.9131,"arg_perigee_deg":338.5651,"mean_anomaly_deg":21.5179,"bstar":0.00037448,"rev_number":4999,"period_min":94.266240412272,"perigee_km":482.6772568408,"apogee_km":483.37160637768,"semimajor_km":6861.1614316092,"source":"CELESTRAK","updated_at":"2026-09-21T09:00:35.876872Z"}}